Flag for Canada Weather past 2 weeks in Moncton, New Brunswick, Canada

Now
63 °F

Mostly cloudy.


Feels Like: 63 °F
Forecast: 61 / 77 °F
Wind: 6 mph from East

Location: Moncton

Current Time: Sep 2, 2014 at 4:13:57 AM

Latest Report: Sep 2, 2014 at 3:00 AM


Visibility: 15 mi

Pressure: 29.96 "Hg

Humidity: 100%

Dew point: 63 °F

Location of MonctonLocation

Historic Weather in Moncton — Graph

°F

Moncton temperature yesterday

Maximum temperature yesterday: 66 °F (at 12:00 AM)
Minimum temperature yesterday: 63 °F (at 10:00 PM)
Average temperature yesterday: 65 °F

Past Weeks' High & Low Weather Summary

 TemperatureHumidityPressure
High84 °F (Aug 25, 3:00 PM)100% (Aug 18, 6:00 AM)30.25 "Hg (Aug 18, 6:00 AM)
Low41 °F (Aug 30, 6:00 AM)41% (Aug 30, 2:00 PM)29.58 "Hg (Aug 18, 3:00 PM)
Average63 °F82%29.96 "Hg
* Reported Aug 18 3:00 AM — Sep 2 3:00 AM, Moncton, Weather by CustomWeather, © 2014

Note: Actual official high and low records may vary slightly from our data, if they occured in-between our weather recording intervals... More about our weather records

Advertising

Moncton weather history for previous 24 hours

 ConditionsComfort  
Time TempWeatherWind HumidityBarometerVisibility
3:00 AM
Sep 2
63 °FMostly cloudy.6 mph100%29.96 "Hg15 mi
2:00 AM63 °FLow clouds.6 mph100%29.97 "Hg8 mi
1:00 AM63 °FLow clouds.5 mph100%29.98 "Hg15 mi
12:00 AM63 °FMostly cloudy.6 mph100%29.98 "Hg15 mi
11:00 PM
Sep 1
63 °FMostly cloudy.5 mph100%29.98 "Hg15 mi
10:00 PM63 °FLow clouds.5 mph100%29.99 "Hg15 mi
9:00 PM64 °FLow clouds.6 mph94%29.99 "Hg15 mi
8:00 PM64 °FLow clouds.5 mph94%29.98 "Hg10 mi
7:00 PM64 °FMostly cloudy.5 mph94%29.98 "Hg10 mi
6:00 PM64 °FLow clouds.8 mph94%29.98 "Hg8 mi
5:00 PM64 °FSprinkles. Low clouds.7 mph94%29.98 "Hg8 mi
4:00 PM64 °FSprinkles. Fog.10 mph94%29.98 "Hg6 mi
3:51 PM64 °FSprinkles. Fog.10 mph94%29.98 "Hg6 mi
3:00 PM64 °FLow clouds.7 mph94%29.97 "Hg8 mi
2:00 PM66 °FLow clouds.8 mph94%29.96 "Hg8 mi
1:00 PM64 °FDrizzle. Fog.10 mph100%29.94 "Hg1 mi
12:00 PM66 °FDrizzle. Fog.9 mph94%29.94 "Hg1 mi
11:00 AM66 °FDrizzle. Fog.9 mph94%29.93 "Hg1 mi
10:00 AM66 °FFog.7 mph100%29.92 "Hg1 mi
9:53 AM66 °FFog.7 mph100%29.92 "Hg2 mi
9:00 AM66 °FFog.5 mph94%29.92 "Hg4 mi
8:00 AM66 °FSprinkles. Fog.6 mph94%29.91 "Hg6 mi
7:00 AM64 °FLow clouds.5 mph100%29.90 "Hg12 mi
6:00 AM66 °FOvercast.6 mph94%29.88 "Hg15 mi
5:00 AM66 °FOvercast.5 mph94%29.88 "Hg15 mi
4:00 AM66 °FOvercast.3 mph94%29.87 "Hg15 mi
Weather by CustomWeather, © 2014

See weather overviewHow to use our weather pages